RH
92 97 83 86 98 100 99 96 48 17 18 17 17 14 12 12 12 10 9 10 7 7 5 5 5 5 6 8 10 10 10 9 9 9 11 14 13 12 14 16 16 14 14 14 16
100 85 73 75 100 97 60 30 17 20 19 17 15 13 13 13 11 10 9 10 7 6 6 6 8 8 11 10 12 11 12 13 12 14 15 16 19 17 19 17 14 18 20 19 22
87 100 100 100 54 23 17 17 20 20 17 15 13 14 14 11 10 10 9 7 5 6 6 7 10 15 12 12 13 11 11 14 17 22 23 21 19 23 25 23 25 22 23 21 20
62 98 100 39 17 18 21 22 19 16 16 15 15 14 12 10 10 9 8 6 6 7 8 9 10 13 16 15 16 16 16 16 22 24 23 24 23 33 29 24 24 22 20 19 20
100 100 57 19 20 22 21 18 17 16 15 15 15 13 11 9 8 8 6 7 7 7 8 8 11 11 13 13 13 16 18 17 22 23 24 28 26 24 20 22 22 24 22 23 30
100 45 20 20 21 20 18 16 18 16 15 15 14 12 10 8 8 8 7 8 8 9 11 15 15 19 22 22 19 16 20 19 19 20 22 18 19 18 20 21 23 26 31 36 45
34 20 22 22 22 20 17 17 18 15 15 15 12 10 10 10 11 9 10 11 10 13 18 21 20 25 24 28 27 21 20 20 21 20 20 18 20 25 26 24 28 31 36 48 46
24 23 22 24 24 21 20 22 20 17 15 13 10 10 10 11 12 12 11 12 13 13 14 18 19 23 29 29 29 28 26 25 21 20 20 22 31 26 32 35 39 47 54 57 68
27 22 25 22 24 21 22 24 21 16 14 11 10 11 12 12 14 16 14 14 14 16 16 19 21 22 30 32 37 42 45 42 27 22 22 30 32 34 42 38 45 76 83 72 70
20 24 28 24 23 21 23 23 22 16 14 12 15 17 17 19 18 18 17 16 18 19 21 22 26 27 26 38 44 56 53 44 39 26 27 44 40 48 44 50 70 94 88 80 64
19 24 25 24 22 21 26 21 19 17 16 15 14 17 17 22 20 20 20 18 20 21 24 26 26 29 28 35 50 55 76 66 46 36 36 42 60 65 57 80 98 100 95 80 94
21 23 23 23 22 25 25 19 18 17 18 18 19 25 23 21 22 25 24 21 22 24 27 31 32 33 38 44 52 78 100 72 82 71 59 60 67 73 71 96 100 100 100 96 84
33 32 25 22 22 29 23 20 18 18 21 22 26 27 23 23 26 27 23 22 24 25 32 34 40 40 42 49 52 73 100 74 82 83 76 80 96 100 96 100 99 97 94 94 64
48 50 25 23 30 27 23 26 25 24 24 26 25 25 26 27 31 29 27 24 28 32 32 36 41 40 40 52 55 77 90 78 88 90 99 91 100 100 98 71 70 90 74 62 32
63 52 29 24 36 28 25 24 24 24 26 25 22 30 29 30 36 34 33 31 33 36 35 35 41 46 51 54 66 69 72 75 88 85 100 97 86 70 67 67 55 52 42 39 36
72 50 30 26 32 30 27 27 30 32 31 26 22 25 26 28 34 48 51 42 41 43 38 40 40 46 48 57 68 61 64 83 96 81 73 74 79 95 100 73 47 31 40 60 46
75 53 32 31 35 30 27 30 39 34 31 27 25 24 34 38 38 42 55 43 47 47 42 43 39 44 52 62 57 53 56 62 56 72 74 82 94 100 70 56 38 36 66 46 53
85 74 38 36 40 37 34 50 52 56 37 32 28 31 40 45 45 50 56 52 49 49 55 50 53 51 56 60 57 52 52 55 58 61 72 94 78 81 58 43 38 57 45 54 47
85 88 49 41 44 50 46 57 80 82 50 32 35 38 40 43 53 56 59 60 68 73 67 67 66 55 51 50 58 52 53 54 57 56 66 72 78 61 48 34 51 55 44 40 34
88 84 53 42 48 54 59 75 76 84 65 47 45 43 49 53 43 58 74 87 94 88 86 72 68 55 50 45 54 47 49 51 55 48 50 67 68 46 50 50 72 37 40 44 38
99 93 59 46 62 50 66 66 62 70 65 67 70 56 57 58 55 91 100 100 90 87 73 58 72 63 51 48 58 53 55 59 61 65 58 51 55 46 72 86 58 39 43 44 39
88 93 85 53 81 60 60 64 71 77 72 67 63 80 68 72 100 97 75 78 80 69 52 46 48 75 59 56 62 56 53 59 60 70 65 75 68 64 76 81 56 43 46 49 40
94 87 100 82 70 89 48 63 80 74 70 65 87 79 86 100 95 74 86 98 80 62 47 49 50 79 81 64 67 61 61 56 60 76 95 82 70 72 69 73 56 42 44 48 46
100 95 100 100 83 81 65 75 93 86 81 87 100 94 82 74 72 62 99 99 66 68 67 43 70 71 73 51 50 54 54 60 62 80 95 96 84 80 75 72 48 43 48 50 48
100 94 100 100 100 90 75 87 96 92 88 95 94 95 83 71 69 71 100 66 88 90 66 70 83 65 75 55 49 58 59 66 79 86 91 92 91 87 73 64 45 40 50 57 42
100 100 100 100 98 89 91 94 89 89 100 100 100 100 94 75 68 86 79 46 88 100 87 73 68 67 85 64 56 75 64 78 75 92 90 79 82 93 72 63 48 55 61 57 50
100 100 100 100 100 100 99 100 100 100 100 100 100 100 80 74 70 91 86 60 77 100 74 57 61 62 79 85 77 74 69 69 86 83 91 76 92 100 78 79 71 82 63 64 54
Wind_Speed
22 23 20 17 13 16 19 15 12 7 6 4 5 6 8 12 16 18 19 17 22 27 27 30 28 26 26 24 22 19 18 13 13 11 15 18 14 11 15 19 22 18 19 21 25
20 18 18 15 14 15 13 11 10 8 5 4 4 4 9 13 16 16 14 18 22 26 25 25 21 20 16 13 10 13 21 20 20 21 24 28 28 23 24 25 25 29 30 32 37
25 21 19 16 16 13 12 12 10 5 3 3 0 5 10 13 15 14 16 17 21 26 23 25 25 32 10 24 21 9 15 23 28 29 30 31 29 31 31 30 31 34 35 38 46
25 24 21 18 15 15 13 11 8 7 5 5 2 5 10 12 14 13 14 19 26 25 28 28 28 28 37 22 31 30 30 26 33 32 31 32 35 34 32 32 35 38 41 46 49
21 24 22 20 18 16 12 12 9 7 6 3 4 6 8 12 12 12 15 20 27 30 32 32 31 32 33 32 30 31 30 31 32 30 30 33 33 34 36 38 38 42 46 50 55
29 26 24 22 19 14 13 9 8 9 7 4 6 4 8 13 13 16 16 22 28 30 32 33 33 31 31 30 30 29 29 28 28 29 30 31 33 34 36 39 41 45 50 52 59
29 25 25 22 18 13 12 10 10 9 7 9 9 9 12 10 13 17 20 23 25 29 32 31 32 31 30 29 32 30 30 29 27 28 29 34 35 36 38 43 48 47 53 57 64
29 26 25 22 19 15 11 10 10 10 13 12 11 12 9 8 12 18 20 23 24 27 31 30 30 31 32 33 32 31 29 30 29 29 28 33 40 39 44 47 46 53 56 59 64
29 27 26 21 20 15 12 9 11 16 16 13 12 8 4 6 12 17 18 23 24 26 30 33 34 34 35 37 37 35 33 33 31 31 33 37 43 45 46 47 48 55 58 60 66
28 29 25 22 18 14 12 11 15 19 17 14 8 3 4 8 13 16 18 21 26 29 31 32 35 35 36 37 38 39 39 36 35 36 38 40 43 45 45 48 50 57 62 67 73
28 30 26 23 18 16 13 13 19 19 17 14 8 4 5 9 13 16 19 21 25 27 31 33 33 35 36 38 39 41 45 43 39 35 38 41 43 48 47 52 58 63 67 70 82
30 28 27 23 20 18 14 17 17 19 17 11 7 5 7 9 11 15 19 20 24 27 30 33 35 35 38 39 40 41 42 47 44 40 41 44 46 50 50 57 61 65 70 76 86
32 29 27 23 21 19 17 17 17 18 15 9 7 6 9 8 12 16 18 20 23 26 30 33 35 36 37 39 39 41 42 46 46 44 43 46 49 53 55 58 61 68 71 83 89
33 31 28 24 22 21 20 19 17 14 10 6 6 7 8 10 12 15 18 21 25 28 29 32 34 37 38 40 41 40 45 47 49 49 47 51 52 55 54 57 61 70 78 85 93
35 32 29 24 22 24 22 21 17 15 11 8 7 5 5 8 13 15 19 22 25 29 30 33 35 37 40 40 44 44 46 46 49 51 50 52 50 52 57 62 68 74 81 96 101
36 34 30 25 24 26 24 20 17 15 14 12 10 8 10 12 14 18 21 23 28 30 32 33 36 37 40 41 43 46 47 48 50 51 52 53 58 62 65 66 69 81 89 96 102
39 36 31 27 24 26 25 20 17 14 13 13 13 12 13 15 17 21 22 24 29 31 33 36 37 40 42 44 43 47 49 49 53 54 57 58 62 64 64 68 77 85 91 97 104
39 36 33 29 28 25 25 23 20 16 14 11 12 13 16 17 19 21 21 24 28 31 32 34 38 41 43 44 44 49 52 56 57 58 59 62 63 61 65 73 76 85 93 101 108
40 38 35 31 29 27 26 25 22 20 18 16 15 16 19 20 19 20 24 29 33 34 34 36 38 41 43 45 45 50 54 58 59 63 61 65 64 62 68 75 81 89 96 103 111
43 41 37 34 29 27 27 24 23 22 19 18 18 20 21 19 20 24 27 31 29 32 36 39 40 42 44 46 46 51 56 59 62 66 67 66 66 65 70 78 87 91 98 108 118
45 44 39 39 30 29 29 27 24 22 23 20 21 21 18 19 21 26 27 27 31 36 39 42 43 43 44 46 48 53 57 60 65 68 71 71 67 69 76 82 85 93 102 107 120
49 45 42 41 37 33 33 29 24 24 23 24 21 19 17 20 22 25 31 35 37 42 44 47 48 42 44 47 50 55 59 64 66 70 74 73 72 74 79 82 85 94 101 109 121
51 46 42 40 38 37 36 33 29 26 26 26 22 19 18 22 25 31 36 35 39 43 44 46 46 41 45 47 50 55 60 65 69 71 74 76 78 79 82 83 88 96 107 114 119
55 48 46 40 39 39 38 36 32 32 30 27 25 25 25 28 31 34 32 37 41 42 44 47 42 41 44 47 50 53 58 66 71 73 74 79 85 84 85 88 93 101 105 113 124
58 51 46 43 41 40 40 39 35 33 29 28 27 27 28 31 33 31 32 35 38 45 45 45 43 44 44 49 51 55 60 66 71 74 75 77 84 83 83 87 94 100 106 114 123
55 52 46 44 41 41 40 39 36 32 31 29 28 29 30 32 33 30 33 37 40 46 42 44 46 46 45 50 53 57 61 66 71 75 76 77 81 83 83 88 94 102 107 113 124
55 51 48 45 43 41 39 39 37 34 31 30 31 33 31 31 32 30 34 41 44 42 42 44 47 46 44 51 56 58 61 66 71 75 78 78 83 86 86 89 96 103 110 116 123
Wind_Direction
169 171 169 179 190 199 209 211 187 177 192 226 266 291 318 341 344 346 340 344 341 336 334 330 326 322 320 319 325 336 335 336 326 343 31 32 22 20 23 10 15 1 347 336 332
174 181 184 183 194 178 167 169 172 170 199 235 265 325 346 354 351 345 351 352 343 342 348 354 354 360 352 346 358 35 62 67 67 61 34 25 22 22 7 1 360 354 350 341 337
182 191 195 192 153 155 161 163 168 178 199 195 210 5 6 357 354 357 6 357 360 12 17 28 41 40 53 54 44 28 40 41 28 22 14 12 9 2 359 354 351 343 339 334 330
180 181 200 160 154 153 162 166 154 147 161 158 48 22 6 10 16 21 10 14 15 22 26 33 40 32 34 27 26 25 31 18 14 12 5 2 360 351 349 342 339 336 338 335 331
207 201 165 156 154 160 164 151 131 145 146 147 73 34 27 28 41 25 29 19 21 26 34 36 36 35 35 31 29 20 17 15 6 3 360 354 349 346 345 341 337 334 335 334 334
178 164 163 162 163 163 150 138 139 149 155 144 95 71 61 63 45 35 27 26 23 24 27 29 30 28 26 23 22 20 15 12 8 2 355 355 348 347 344 348 342 339 341 337 339
167 164 168 174 177 175 156 159 148 153 161 141 117 110 97 62 37 30 26 18 19 20 22 25 25 22 19 17 17 18 18 12 5 1 358 352 357 351 351 348 345 342 340 339 338
167 171 175 181 188 180 169 160 160 161 157 140 139 127 90 49 28 12 14 10 12 16 20 20 18 16 15 16 17 17 12 8 2 356 353 348 351 354 350 346 345 344 341 336 333
171 178 182 181 179 178 182 176 173 162 157 144 138 129 79 20 359 359 3 8 8 11 13 16 13 11 9 12 12 11 4 358 360 352 348 349 350 349 348 345 344 343 339 336 335
180 182 183 186 190 197 197 189 175 168 165 159 155 128 349 350 350 356 2 2 7 6 8 6 7 5 3 5 6 7 3 357 354 348 346 346 343 342 345 342 340 343 342 339 336
189 187 189 194 203 206 197 183 174 175 183 189 201 251 312 344 353 355 352 356 4 3 5 3 0 2 360 357 358 1 358 356 352 347 342 339 341 338 343 341 341 343 341 338 336
192 186 190 195 201 203 189 174 175 176 181 192 217 262 302 338 353 356 354 353 357 359 359 1 357 355 356 356 357 353 349 352 349 345 342 342 339 334 338 339 342 344 342 338 334
193 190 191 193 201 198 182 181 176 177 191 214 246 269 296 316 342 348 353 350 352 354 353 353 353 352 351 353 355 353 344 348 350 348 341 341 336 333 336 339 340 341 339 339 334
196 193 192 195 203 192 185 179 175 182 189 213 259 301 299 318 334 339 343 344 348 347 348 349 348 349 348 349 352 351 346 349 349 347 344 343 344 340 340 337 340 342 343 336 337
196 193 193 196 198 195 191 189 197 204 207 228 249 271 309 328 341 344 345 340 341 345 345 348 347 345 346 345 349 352 348 349 346 346 344 343 342 335 338 345 344 342 341 344 344
196 193 197 201 202 200 199 202 205 221 227 228 241 268 289 307 328 339 334 335 336 339 341 343 344 342 344 345 348 350 349 350 346 342 340 337 336 339 342 340 337 348 345 344 345
198 196 201 203 202 203 203 208 209 223 223 234 250 264 290 305 317 325 330 334 333 334 338 339 340 341 342 345 347 347 348 347 345 344 343 342 341 339 338 342 346 344 346 348 346
198 198 202 204 202 202 204 205 209 222 226 241 256 272 299 307 317 322 331 332 332 333 335 335 337 339 338 343 343 344 346 346 345 346 347 345 342 341 346 344 345 346 348 347 346
198 202 204 205 206 207 209 216 222 228 236 247 259 275 291 304 318 327 329 328 330 330 334 335 336 337 338 341 342 343 346 347 346 347 347 344 344 344 346 346 347 348 349 349 349
200 205 206 206 206 212 216 217 229 232 232 247 261 273 288 295 315 323 324 326 327 331 336 337 337 337 338 340 341 342 345 346 346 346 348 346 341 342 347 345 349 350 349 350 352
204 206 207 211 211 217 219 224 230 236 238 253 265 275 285 296 314 318 318 321 325 329 336 340 337 335 335 338 339 341 345 344 345 344 345 346 344 343 345 347 350 349 349 351 353
209 211 212 214 218 223 226 228 232 232 239 254 260 272 288 302 306 315 320 319 321 323 329 330 335 332 334 336 338 342 345 344 345 343 343 346 345 345 348 348 348 350 349 352 354
213 213 215 218 221 224 227 231 231 235 247 254 257 266 293 294 297 305 317 321 322 324 327 328 332 333 336 336 337 341 344 345 346 344 343 345 346 348 349 348 348 350 350 352 352
216 217 220 221 223 226 230 232 233 240 249 251 257 269 282 293 305 313 319 322 324 328 330 332 331 333 334 333 335 337 342 344 346 346 345 346 349 349 349 349 350 349 350 351 351
218 219 219 223 226 229 231 233 238 241 247 253 263 273 286 297 305 314 314 322 327 332 334 333 331 332 334 334 336 340 343 344 345 345 346 348 349 348 349 348 348 349 348 352 352
220 222 223 225 227 229 232 235 236 239 244 249 259 275 286 298 308 308 315 322 325 332 336 333 332 334 334 333 336 340 342 343 342 345 345 347 348 346 346 348 349 349 351 352 351
220 219 223 227 227 231 233 234 233 235 242 252 262 275 287 298 305 309 313 319 324 333 336 331 334 333 331 332 334 337 338 340 340 342 344 347 346 345 346 347 348 349 351 353 353